Weather History for Billings, MT

Change the Weather History Date:

Saturday, January 5, 2013

  Actual Average Record
Temperature  
Mean Temperature 30 °F 26 °F  
Max Temperature 38 °F 36 °F 64 °F (2012)
Min Temperature 21 °F 17 °F -17 °F (1982)
Degree Days  
Heating Degree Days 35 39  
Month to date heating degree days 189 195  
Since 1 July heating degree days 2730 3016  
Cooling Degree Days 0 0  
Month to date cooling degree days 0 0  
Year to date cooling degree days 0 0  
Moisture  
Dew Point 15 °F    
Average Humidity 56    
Maximum Humidity 68    
Minimum Humidity 44    
Precipitation  
Precipitation 0.00 in 0.02 in 0.43 in (1980)
Month to date precipitation 0.01 0.08  
Year to date precipitation 0.01 0.08  
Snow  
Snow 0.00 in 0.30 in 6.90 in (2010)
Month to date snowfall 0.1 1.4  
Since 1 July snowfall 16.4 21.3  
Snow Depth 0.00 in    
Sea Level Pressure  
Sea Level Pressure 30.26 in    
Wind  
Wind Speed 15 mph (WSW)    
Max Wind Speed 25 mph    
Max Gust Speed 31 mph    
Visibility 10 miles    
Events      
T = Trace of Precipitation, MM = Missing Value Source: NWS Daily Summary

Daily Weather History Graph

Daily Weather History Graph

Search for Another Location

Airport:

Trip Planner

Search our weather history database for the weather conditions in past years. The results will help you decide how hot, cold, wet, or windy it might be!

Date:

Astronomy

Jan. 05, 2013 Rise Set
Actual Time 7:55 AM MST 4:44 PM MST
Civil Twilight 7:21 AM MST 5:18 PM MST
Nautical Twilight 6:43 AM MST 5:56 PM MST
Astronomical Twilight 6:07 AM MST 6:32 PM MST
Moon 12:54 AM MST (1/5) 11:45 AM MST (1/5)
Length of Visible Light 9h 57m
Length of Day
8h 49m
Last Quarter, 43% of the Moon is Illuminated
Jan 5
Last Quarter
Jan 11
New
Jan 18
First Quarter
Jan 26
Full
Feb 3
Last Quarter

Hourly Weather History & Observations

Time (MST) Temp. Windchill Dew Point Humidity Pressure Visibility Wind Dir Wind Speed Gust Speed Precip Events Conditions
12:53 AM 30.9 °F 21.7 °F 15.1 °F 52% 30.21 in 10.0 mi West 11.5 mph - N/A   Clear
1:53 AM 28.9 °F 19.8 °F 16.0 °F 58% 30.22 in 10.0 mi West 10.4 mph - N/A   Clear
2:53 AM 30.0 °F 20.0 °F 17.1 °F 59% 30.23 in 10.0 mi West 12.7 mph - N/A   Clear
3:53 AM 28.0 °F 18.1 °F 15.1 °F 58% 30.25 in 10.0 mi WSW 11.5 mph - N/A   Partly Cloudy
4:53 AM 28.0 °F 17.0 °F 17.1 °F 63% 30.27 in 10.0 mi WNW 13.8 mph - N/A   Clear
5:53 AM 26.1 °F 16.2 °F 17.1 °F 69% 30.30 in 10.0 mi WSW 10.4 mph - N/A   Clear
6:53 AM 30.0 °F 19.5 °F 18.0 °F 61% 30.30 in 10.0 mi WNW 13.8 mph - N/A   Partly Cloudy
7:53 AM 28.9 °F 19.2 °F 18.0 °F 64% 30.32 in 10.0 mi WNW 11.5 mph - N/A   Partly Cloudy
8:53 AM 26.1 °F 16.8 °F 15.1 °F 63% 30.35 in 10.0 mi SW 9.2 mph - N/A   Partly Cloudy
9:53 AM 26.1 °F 14.0 °F 12.9 °F 58% 30.35 in 10.0 mi SW 15.0 mph - N/A   Partly Cloudy
10:53 AM 28.9 °F 18.2 °F 12.9 °F 51% 30.35 in 10.0 mi WSW 13.8 mph - N/A   Partly Cloudy
11:53 AM 33.1 °F 22.6 °F 15.1 °F 48% 30.31 in 10.0 mi WSW 16.1 mph - N/A   Clear
12:53 PM 35.1 °F 25.2 °F 17.1 °F 48% 30.27 in 10.0 mi WSW 16.1 mph - N/A   Clear
1:53 PM 37.0 °F 28.5 °F 17.1 °F 44% 30.26 in 10.0 mi WSW 13.8 mph - N/A   Clear
2:53 PM 37.0 °F 27.0 °F 17.1 °F 44% 30.25 in 10.0 mi WSW 18.4 mph - N/A   Clear
3:53 PM 35.1 °F 25.5 °F 16.0 °F 46% 30.26 in 10.0 mi WSW 15.0 mph 24.2 mph N/A   Clear
4:53 PM 32.0 °F 21.2 °F 16.0 °F 52% 30.27 in 10.0 mi SW 16.1 mph - N/A   Clear
5:53 PM 30.0 °F 18.3 °F 14.0 °F 51% 30.27 in 10.0 mi SW 17.3 mph - N/A   Clear
6:53 PM 28.0 °F 14.6 °F 12.9 °F 53% 30.25 in 10.0 mi WSW 20.7 mph - N/A   Clear
7:53 PM 27.0 °F 13.2 °F 12.9 °F 56% 30.24 in 10.0 mi WSW 20.7 mph - N/A   Clear
8:53 PM 27.0 °F 12.8 °F 12.0 °F 53% 30.23 in 10.0 mi WSW 21.9 mph 29.9 mph N/A   Clear
9:53 PM 26.1 °F 12.0 °F 12.0 °F 55% 30.21 in 10.0 mi WSW 20.7 mph - N/A   Clear
10:53 PM 26.1 °F 15.6 °F 12.9 °F 58% 30.20 in 10.0 mi SW 11.5 mph - N/A   Clear
11:53 PM 27.0 °F 14.7 °F 14.0 °F 58% 30.16 in 10.0 mi SW 16.1 mph - N/A   Clear